| DS18B20 | SHTC3 | PZEM-004T | WiFi | ||||||||
|---|---|---|---|---|---|---|---|---|---|---|---|
| ID | Date d/m/Y & Time | data1 สูง | data2 ต่ำ | data3 นอก | temp pcb | hum pcb | Volt | Amp | Watt | rssi | Time |
| 16033 | 26/08/2026 02:29:35 | 28.0  | 28.1  | 26.3  | 29.0  | 67.0  | 235.1  | 0.04  | 4.5  | -89  | 02:29 |
| 16032 | 26/08/2026 02:24:51 | 28.0  | 28.1  | 26.2  | 28.9  | 67.0  | 232.6  | 0.04  | 4.5  | -83  | 02:24 |
| 16031 | 26/08/2026 02:20:08 | 28.0  | 28.1  | 26.2  | 29.0  | 67.1  | 234.9  | 0.03  | 4.5  | -89  | 02:20 |
| 16030 | 26/08/2026 02:15:25 | 28.0  | 28.1  | 26.3  | 29.1  | 67.2  | 234.4  | 0.03  | 4.5  | -89  | 02:15 |
| 16029 | 26/08/2026 02:10:39 | 28.0  | 28.1  | 26.2  | 29.1  | 67.0  | 232.6  | 0.04  | 4.5  | -79  | 02:10 |
| 16028 | 26/08/2026 02:05:53 | 28.1  | 28.1  | 26.2  | 29.0  | 67.0  | 234.9  | 0.04  | 4.5  | -90  | 02:05 |
| 16027 | 26/08/2026 02:01:09 | 28.1  | 28.2  | 26.2  | 29.0  | 67.0  | 233.4  | 0.04  | 4.6  | -82  | 02:01 |
| 16026 | 26/08/2026 01:56:28 | 28.1  | 28.2  | 26.2  | 29.1  | 67.2  | 234.7  | 0.04  | 4.5  | -91  | 01:56 |
| 16025 | 26/08/2026 01:51:31 | 28.1  | 28.2  | 26.2  | 29.2  | 67.0  | 233.0  | 0.04  | 4.5  | -88  | 01:51 |
| 16024 | 26/08/2026 01:46:47 | 28.1  | 28.2  | 26.0  | 29.1  | 67.1  | 234.8  | 0.04  | 4.5  | -92  | 01:46 |
| 16023 | 26/08/2026 01:42:04 | 28.1  | 28.2  | 26.2  | 29.1  | 67.2  | 233.9  | 0.04  | 4.5  | -81  | 01:42 |
| 16022 | 26/08/2026 01:37:20 | 28.1  | 28.2  | 26.3  | 29.1  | 67.0  | 232.1  | 0.04  | 4.5  | -92  | 01:37 |
| 16021 | 26/08/2026 01:32:37 | 28.1  | 28.2  | 26.4  | 29.1  | 67.2  | 232.4  | 0.04  | 4.5  | -92  | 01:32 |
| 16020 | 26/08/2026 01:27:53 | 28.1  | 28.2  | 26.3  | 29.1  | 67.1  | 231.9  | 0.04  | 4.5  | -86  | 01:27 |
| 16019 | 26/08/2026 01:23:10 | 28.2  | 28.2  | 26.2  | 29.1  | 67.1  | 230.2  | 0.04  | 4.5  | -92  | 01:23 |
| 16018 | 26/08/2026 01:18:25 | 28.2  | 28.3  | 26.0  | 29.1  | 67.2  | 231.5  | 0.04  | 4.5  | -93  | 01:18 |
| 16017 | 26/08/2026 01:13:41 | 28.2  | 28.3  | 26.2  | 29.2  | 67.0  | 231.7  | 0.04  | 4.5  | -83  | 01:13 |
| 16016 | 26/08/2026 01:04:01 | 28.2  | 28.3  | 26.2  | 29.1  | 67.0  | 231.9  | 0.04  | 4.5  | -79  | 01:04 |
| 16015 | 26/08/2026 00:59:17 | 28.2  | 28.3  | 26.2  | 29.2  | 67.1  | 232.0  | 0.03  | 4.6  | -84  | 00:59 |
| 16014 | 26/08/2026 00:54:33 | 28.2  | 28.4  | 26.2  | 29.2  | 67.3  | 231.5  | 0.04  | 4.5  | -83  | 00:54 |
| 16013 | 26/08/2026 00:49:35 | 28.2  | 28.4  | 26.2  | 29.2  | 67.2  | 229.8  | 0.04  | 4.5  | -83  | 00:49 |
| 16012 | 26/08/2026 00:44:50 | 28.2  | 28.4  | 26.4  | 29.2  | 67.1  | 230.9  | 0.04  | 4.5  | -85  | 00:44 |
| 16011 | 26/08/2026 00:40:06 | 28.3  | 28.4  | 26.5  | 29.2  | 67.2  | 229.6  | 0.04  | 4.5  | -84  | 00:40 |
| 16010 | 26/08/2026 00:35:23 | 28.3  | 28.4  | 26.2  | 29.4  | 67.2  | 230.9  | 0.04  | 4.5  | -89  | 00:35 |